Weather History for KMHV - November, 2012

Change the Weather History Date:

Sunday, November 11, 2012

  Actual Average Record
Temperature  
Mean Temperature 39 °F -  
Max Temperature 50 °F 66 °F 80 °F (1996)
Min Temperature 28 °F 41 °F 28 °F (2012)
Degree Days  
Heating Degree Days 26    
Moisture  
Dew Point 12 °F    
Average Humidity 32    
Maximum Humidity 55    
Minimum Humidity 24    
Precipitation  
Precipitation 0.00 in - - ()
Sea Level Pressure  
Sea Level Pressure 30.30 in    
Wind  
Wind Speed 5 mph (NNE)    
Max Wind Speed 13 mph    
Max Gust Speed -    
Visibility 10 miles    
Events      
Averages and records for this station are not official NWS values.
T = Trace of Precipitation, MM = Missing Value Source: NWS Daily Summary

Daily Weather History Graph

Daily Weather History Graph

Search for Another Location

Airport or City:

Trip Planner

Search our weather history database for the weather conditions in past years. The results will help you decide how hot, cold, wet, or windy it might be!

Date:

Astronomy

Nov. 11, 2012 Rise Set
Actual Time 6:23 AM PST 4:49 PM PST
Civil Twilight 5:57 AM PST 5:15 PM PST
Nautical Twilight 5:26 AM PST 5:46 PM PST
Astronomical Twilight 4:56 AM PST 6:16 PM PST
Moon 3:47 AM PST (11/11) 3:12 PM PST (11/11)
Length of Visible Light 11h 18m
Length of Day
10h 25m
Waning Crescent, 6% of the Moon is Illuminated
Nov 11
Waning Crescent
Nov 13
New
Nov 20
First Quarter
Nov 28
Full
Dec 6
Last Quarter

Hourly Weather History & Observations

Time (PST) Temp. Windchill Dew Point Humidity Pressure Visibility Wind Dir Wind Speed Gust Speed Precip Events Conditions
12:15 AM 39.2 °F 31.6 °F 10.4 °F 31% 30.14 in 10.0 mi NW 12.7 mph - N/A   Clear
12:35 AM 41.0 °F 37.1 °F 10.4 °F 29% 30.15 in 10.0 mi NW 5.8 mph - N/A   Clear
12:55 AM 39.2 °F 37.0 °F 10.4 °F 31% 30.16 in 10.0 mi ESE 3.5 mph - N/A   Clear
1:15 AM 35.6 °F 32.8 °F 10.4 °F 35% 30.17 in 10.0 mi SE 3.5 mph - N/A   Clear
1:35 AM 35.6 °F - 10.4 °F 35% 30.18 in 10.0 mi Calm Calm - N/A   Clear
1:55 AM 35.6 °F - 10.4 °F 35% 30.18 in 10.0 mi Calm Calm - N/A   Clear
2:15 AM 32.0 °F - 10.4 °F 41% 30.18 in 10.0 mi Calm Calm - N/A   Clear
2:35 AM 30.2 °F - 10.4 °F 44% 30.19 in 10.0 mi Calm Calm - N/A   Clear
2:55 AM 28.4 °F - 10.4 °F 47% 30.19 in 10.0 mi Calm Calm - N/A   Clear
3:15 AM 28.4 °F - 10.4 °F 47% 30.20 in 10.0 mi Calm Calm - N/A   Clear
3:35 AM 30.2 °F 23.4 °F 10.4 °F 44% 30.20 in 10.0 mi NNW 6.9 mph - N/A   Clear
4:15 AM 32.0 °F - 12.2 °F 44% 30.21 in 10.0 mi Calm Calm - N/A   Clear
4:55 AM 32.0 °F - 10.4 °F 41% 30.23 in 10.0 mi Calm Calm - N/A   Clear
5:15 AM 30.2 °F - 12.2 °F 47% 30.24 in 10.0 mi Calm Calm - N/A   Clear
5:35 AM 28.4 °F - 12.2 °F 51% 30.25 in 10.0 mi Calm Calm - N/A   Clear
5:55 AM 28.4 °F - 14.0 °F 55% 30.26 in 10.0 mi Calm Calm - N/A   Clear
6:15 AM 28.4 °F 24.6 °F 14.0 °F 55% 30.27 in 10.0 mi North 3.5 mph - N/A   Clear
6:55 AM 32.0 °F 28.7 °F 15.8 °F 51% 30.29 in 10.0 mi North 3.5 mph - N/A   Clear
7:15 AM 35.6 °F - 15.8 °F 44% 30.29 in 10.0 mi Calm Calm - N/A   Clear
7:35 AM 35.6 °F - 15.8 °F 44% 30.30 in 10.0 mi Calm Calm - N/A   Clear
8:15 AM 37.4 °F - 15.8 °F 41% 30.32 in 10.0 mi Calm Calm - N/A   Clear
8:35 AM 39.2 °F 35.0 °F 15.8 °F 39% 30.33 in 10.0 mi ENE 5.8 mph - N/A   Clear
8:55 AM 41.0 °F 35.2 °F 15.8 °F 36% 30.34 in 10.0 mi NE 9.2 mph - N/A   Clear
9:15 AM 42.8 °F 36.6 °F 14.0 °F 31% 30.35 in 10.0 mi ENE 11.5 mph - N/A   Clear
9:35 AM 44.6 °F 39.7 °F 14.0 °F 29% 30.36 in 10.0 mi ENE 9.2 mph - N/A   Clear
9:55 AM 44.6 °F 39.2 °F 14.0 °F 29% 30.36 in 10.0 mi NE 10.4 mph - N/A   Clear
10:15 AM 44.6 °F 38.4 °F 14.0 °F 29% 30.36 in 10.0 mi ENE 12.7 mph - N/A   Clear
10:35 AM 46.4 °F 42.9 °F 14.0 °F 27% 30.36 in 10.0 mi East 6.9 mph - N/A   Clear
10:55 AM 46.4 °F 42.4 °F 14.0 °F 27% 30.36 in 10.0 mi NE 8.1 mph - N/A   Clear
11:15 AM 46.4 °F 42.9 °F 14.0 °F 27% 30.36 in 10.0 mi NE 6.9 mph - N/A   Clear
11:35 AM 48.2 °F - 15.8 °F 27% 30.35 in 10.0 mi ENE 9.2 mph - N/A   Clear
11:55 AM 48.2 °F - 15.8 °F 27% 30.34 in 10.0 mi NE 5.8 mph - N/A   Clear
12:15 PM 48.2 °F - 15.8 °F 27% 30.33 in 10.0 mi East 6.9 mph - N/A   Clear
12:35 PM 48.2 °F - 15.8 °F 27% 30.33 in 10.0 mi East 3.5 mph - N/A   Clear
12:55 PM 48.2 °F - 15.8 °F 27% 30.32 in 10.0 mi Calm Calm - N/A   Clear
1:15 PM 50.0 °F - 15.8 °F 26% 30.32 in 10.0 mi NE 9.2 mph - N/A   Clear
1:35 PM 50.0 °F - 14.0 °F 24% 30.31 in 10.0 mi NE 6.9 mph - N/A   Clear
1:55 PM 50.0 °F - 14.0 °F 24% 30.31 in 10.0 mi NNE 4.6 mph - N/A   Clear
2:15 PM 50.0 °F - 14.0 °F 24% 30.31 in 10.0 mi Calm Calm - N/A   Clear
2:35 PM 50.0 °F - 14.0 °F 24% 30.31 in 10.0 mi NE 9.2 mph - N/A   Clear
2:55 PM 50.0 °F - 14.0 °F 24% 30.31 in 10.0 mi ENE 3.5 mph - N/A   Clear
3:15 PM 50.0 °F - 14.0 °F 24% 30.30 in 10.0 mi North 8.1 mph - N/A   Clear
3:35 PM 50.0 °F - 14.0 °F 24% 30.31 in 10.0 mi NE 9.2 mph - N/A   Clear
3:55 PM 50.0 °F - 14.0 °F 24% 30.31 in 10.0 mi Calm Calm - N/A   Clear
4:15 PM 50.0 °F - 14.0 °F 24% 30.32 in 10.0 mi NE 3.5 mph - N/A   Clear
4:35 PM 50.0 °F - 14.0 °F 24% 30.32 in 10.0 mi NE 3.5 mph - N/A   Clear
4:55 PM 48.2 °F - 14.0 °F 25% 30.32 in 10.0 mi Calm Calm - N/A   Clear
5:15 PM 46.4 °F - 12.2 °F 25% 30.32 in 10.0 mi Calm Calm - N/A   Clear
5:35 PM 44.6 °F - 10.4 °F 25% 30.33 in 10.0 mi Calm Calm - N/A   Clear
5:55 PM 44.6 °F - 10.4 °F 25% 30.33 in 10.0 mi Calm Calm - N/A   Clear
6:15 PM 42.8 °F 38.0 °F 10.4 °F 27% 30.34 in 10.0 mi North 8.1 mph - N/A   Clear
6:35 PM 42.8 °F 38.0 °F 10.4 °F 27% 30.34 in 10.0 mi North 8.1 mph - N/A   Clear
6:55 PM 42.8 °F 38.6 °F 10.4 °F 27% 30.35 in 10.0 mi North 6.9 mph - N/A   Clear
7:15 PM 41.0 °F 36.4 °F 10.4 °F 29% 30.36 in 10.0 mi North 6.9 mph - N/A   Clear
7:35 PM 41.0 °F 35.8 °F 10.4 °F 29% 30.36 in 10.0 mi North 8.1 mph - N/A   Clear
7:55 PM 41.0 °F 35.8 °F 8.6 °F 26% 30.37 in 10.0 mi North 8.1 mph - N/A   Clear
8:15 PM 41.0 °F 36.4 °F 8.6 °F 26% 30.38 in 10.0 mi North 6.9 mph - N/A   Clear
8:35 PM 41.0 °F 35.8 °F 8.6 °F 26% 30.38 in 10.0 mi NNE 8.1 mph - N/A   Clear
9:15 PM 39.2 °F 34.2 °F 8.6 °F 28% 30.39 in 10.0 mi North 6.9 mph - N/A   Clear
9:35 PM 39.2 °F 33.6 °F 8.6 °F 28% 30.39 in 10.0 mi North 8.1 mph - N/A   Clear
10:15 PM 39.2 °F 33.6 °F 8.6 °F 28% 30.39 in 10.0 mi North 8.1 mph - N/A   Clear
10:35 PM 39.2 °F 33.6 °F 6.8 °F 26% 30.39 in 10.0 mi North 8.1 mph - N/A   Clear
11:35 PM 37.4 °F 32.1 °F 6.8 °F 28% 30.38 in 10.0 mi North 6.9 mph - N/A   Clear
11:55 PM 35.6 °F 29.9 °F 6.8 °F 30% 30.38 in 10.0 mi North 6.9 mph - N/A   Clear